Regional Weather Roundup
Issued by NWS

Home | Current Version | Previous Version | Text Only | Print | Product List | Glossary Off
Versions: 1 2 3 4 5 6 7 8 9 10 11 12 13 14 15 16 17 18 19 20 21 22 23 24 25 26 27 28 29 30 31 32 33 34 35 36 37 38 39 40 41 42 43 44 45 46 47 48 49 50

000
ASUS43 KLOT 031100
RWRIL

ILLINOIS REGIONAL WEATHER ROUNDUP
NATIONAL WEATHER SERVICE CHICAGO/ROMEOVILLE IL
600 AM CDT WED JUN 03 2015

NOTE: "FAIR" INDICATES FEW OR NO CLOUDS BELOW 12,000 FEET WITH NO
SIGNIFICANT WEATHER AND/OR OBSTRUCTIONS TO VISIBILITY.

* THESE STATIONS ARE NOT UNDER NWS QUALITY CONTROL. THEY ALSO MAY NOT
  REPORT WEATHER SUCH AS PRECIPITATION OR FOG.

ILZ001-002-007-009-015-016-024-031200-
NORTHWEST ILLINOIS

CITY           SKY/WX    TMP DP  RH WIND       PRES   REMARKS
MOLINE         CLEAR     55  51  86 E3        30.02S
STERLING*      PTCLDY    55  52  88 SE6       30.05S
$$

ILZ003-004-008-010-011-017-018-031200-
NORTH CENTRAL ILLINOIS

CITY           SKY/WX    TMP DP  RH WIND       PRES   REMARKS
ROCKFORD       PTCLDY    54  49  83 CALM      30.09R
FREEPORT*      PTCLDY    52  50  92 SE7       30.06F
$$

ILZ005-006-012>014-019>023-031200-
NORTHEAST ILLINOIS

CITY           SKY/WX    TMP DP  RH WIND       PRES   REMARKS
CHICAGO-OHARE  MOCLDY    51  48  89 SE3       30.08R
CHICAGO-MIDWAY MOCLDY    58  50  75 SE7       30.08R
AURORA         PTCLDY    51  46  83 CALM      30.08R HAZE
WAUKEGAN       PTCLDY    46  45  96 CALM      30.08R
DUPAGE AIRPORT CLEAR     51  47  86 CALM      30.07S
WHEELING       PTCLDY    49  46  90 CALM      30.10R
NORTHERLY ISL    N/A     53  51  93 CALM        N/A
$$

LMZ740>746-031200-
SOUTHERN LAKE MICHIGAN

STATION/POSITION SKY/WX   TEMP    WIND        PRES    VSBY  WAVE
                          AIR SEA DIR/SP/G                  HT/PER
                          (F)     (DEG/KT/KT) (MB)    (MI)  (FT/S)
SOUTHERN BUOY              45 38  140/  6/  6 1019.7R         0
HARRISON CRIB              55     140/  8/ 10   N/A
BURNHAM HARBOR             53        CALM       N/A
CALUMET HARBOR             58     140/  6/  9   N/A
BURNS HARBOR                      170/  6/ 11 1019.3S
MICHIGAN CITY              53     120/  7/  9   N/A
MICHIGAN CITY 6N           55 56  140/  6/  6   N/A           1
ST. JOSEPH                 54 55  160/  6/  8   N/A           0
$$

ILZ025>027-034>036-040-047-049-050-058-095>099-031200-
WEST-CENTRAL ILLINOIS

CITY           SKY/WX    TMP DP  RH WIND       PRES   REMARKS
QUINCY         PTCLDY    57  55  93 SE6       30.02R FOG
MACOMB*        CLEAR     53  53 100 SE3       30.05R FOG
$$

ILZ028>032-037-038-041>044-048-051>054-059>061-031200-
CENTRAL ILLINOIS

CITY           SKY/WX    TMP DP  RH WIND       PRES   REMARKS
DECATUR        PTCLDY    55  53  93 SE5       30.05F FOG
PEORIA         PTCLDY    58  54  86 SE3       30.06R FOG
SPRINGFIELD    CLEAR     56  54  93 SE5       30.05R FOG
TAYLORVILLE    NOT AVBL
$$

ILZ033-039-045-046-055>057-062-063-031200-
EAST-CENTRAL ILLINOIS

CITY           SKY/WX    TMP DP  RH WIND       PRES   REMARKS
CHAMPAIGN      PTCLDY    53  51  93 E5        30.07R FOG
MATTOON        CLOUDY    58  55  90 S5        30.06R
$$

ILZ079-100>102-031200-
SOUTHWEST ILLINOIS

CITY           SKY/WX    TMP DP  RH WIND       PRES   REMARKS
CAHOKIA*       CLOUDY    57  55  93 SE3       30.04R
SPARTA*        CLOUDY    56  56  97 CALM      30.06S
$$

ILZ064>066-069>071-074>076-080>082-084>086-088>090-092>094-031200-
SOUTH-CENTRAL ILLINOIS

CITY           SKY/WX    TMP DP  RH WIND       PRES   REMARKS
CARBONDALE     CLOUDY    55  53  93 CALM      30.05R FOG
MT. VERNON     CLOUDY    55  52  88 CALM      30.07R
SALEM*         CLOUDY    59  56  90 CALM      30.07R FOG
$$

ILZ067-068-072-073-078-083-087-091-031200-
SOUTHEAST ILLINOIS

CITY           SKY/WX    TMP DP  RH WIND       PRES   REMARKS
LAWRENCEVILLE  MOCLDY    53  52  96 CALM      30.08R FOG
HARRISBURG*    CLOUDY    57  57 100 CALM      30.07R FOG
ROBINSON*      CLEAR     53  52  97 CALM      30.09R FOG
$$

ABBREVIATIONS USED IN REMARKS
   TC - TEMPERATURE IN CELSIUS
  WCI - WIND CHILL INDEX
   HX - HEAT INDEX
  VSB - VISIBILITY
$$




USA.gov is the U.S. government's official web portal to all federal, state and local government web resources and services.